Showing default

KANOPUS-V-IK, 42825

Orbit data source: Space-Track

KANOPUS-V-IK, 42825 is a payload satellite owned by VNIIEM (CIS) in SSO that was launched on Fri, 14 Jul 2017 UTC via a SOYUZ-2-1A launch vehicle from the Tyuratam Missile And Space Complex (TTMTR). Payload-class satellites include a variety of spacecraft equipped with specific instruments for various scientific and technological missions. These include communications satellites like Starlink; space stations such as the ISS; scientific satellites like the Hubble; Earth observation satellites from companies like Planet Labs, Umbra, and HawkEye 360; GPS; miniature CubeSats for education and research; and military/defense satellites.

Loading next visibility...
Identifier
42825, 2017-042A
Orbit
SSO
Last TLE update
6 hours ago
Origin
Manufacturer
VNIIEM
Mission
Operational Civil Imaging
Bus & Motor
KANOPUS, Unknown motor
Mass
550 kg wet, 550 kg dry
Launch date (UTC)
2017-07-14 (8 years ago)
Launch vehicle
SOYUZ-2-1A
Launch site
Tyuratam Missile And Space Complex (TTMTR)
Object type
Payload
Rocket body
Debris
Shape & HBR
Box + 2 Pan, 6 m
Radar Cross Section
1.665 m², Large (>1 m²)

Expand to show TLE details & history

TLE from 6 hours ago
0 KANOPUS-V-IK
1 42825U 17042A   25182.19431923  .00002051  00000-0  90677-4 0  9996
2 42825  97.3771  89.3523 0001585  85.4962 274.6456 15.22822933441943
Epoch: 2025-07-01T04:39Z
TLE epoch observation values (Epoch: 2025-07-01T04:39:49.181Z)
Latitude
-0°
Longitude
99.90411°
Altitude
500.337 km
Speed
7.614 km/s
True Right ascension
05h 57m 24s
True Declination
0° 00' 00"
Sunlit
Object was in daylight at epoch
Visualization orbit readout
Latitude
-73.37622°
Longitude
125.69649°
Altitude
525.301 km
Speed
7.599 km/s
Apparent Right ascension
09h 33m 06s
Apparent Declination
-58° 25' 07"
Sunlit
Object is in daylight
Visualization observer readout
Local Sidereal Time
22:17:03
Azimuth
162.85° S
Elevation
-70.211°
Doppler factor
1
Orbital elements
Apogee altitude
495.381 km
Perigee altitude
493.202 km
Semi-major axis
6,872.428 km
Eccentricity
0.00016
Inclination
97.3771°
RAAN
89.3523°
Arg. of periapsis
85.4962°
True anomaly
Unknown
Mean anomaly
274.6456°
Eccentric anomaly
Unknown
Mean motion
3.80959 °/min
Orbital period
94.5 mins
BSTAR
0.000090677
Loading maneuver chart data...
Loading SW <> Apogee altitude chart data...

KANOPUS-V-IK Visibility forecast

Observer location: undefined°, undefined°

Span
Click to sort rows by Start time (UTC) header in descending order
Start Az.
Max El. time (UTC)
Max El. Az.
Max El.
End time (UTC)
End Az.
6 mins2025-07-01 17:24:34.792Z139.906° SSE2025-07-01 17:27:34.792Z78.527° E31.147°2025-07-01 17:30:34.792Z8.24° NNE
5 mins2025-07-02 06:28:34.792Z29.044° NE2025-07-02 06:30:34.792Z100.183° ESE39.897°2025-07-02 06:33:34.792Z177.714° S
|